Location: Chervonnoye
(48.6000°N, 34.4000°E)
Time: 06:35:47
(UTC+00:00)

Cosmos 1842 Rocket - Pass Details

Date: 23 November 2020
Orbit: 606 x 633 km, 82.5° (Epoch: 18 January)

Event Time Altitude Azimuth Distance (km) Brightness Sun altitude
Rises 15:08:06 0° 199° (SSW) 2,855 7.5 -11.9°
Reaches altitude 10° 15:10:21 10° 204° (SSW) 1,954 6.7 -12.3°
Maximum altitude 15:14:36 56° 283° (WNW) 730 4.2 -13.0°
Drops below altitude 10° 15:18:53 10° 2° (N) 1,969 6.0 -13.6°
Sets 15:21:09 0° 7° (N) 2,880 6.8 -14.0°
